COSMOS 2500 [GLONASS-M] 
1 40001U 14032A   19264.70140229 -.00000020  00000-0  00000+0 0  9994
2 40001  65.6093  36.6107 0007238 187.7321 159.2058  2.13102638 41010
FREGAT R/B              
1 40002U 14032B   19264.14203260 -.00000015  00000-0  00000+0 0  9992
2 40002  65.6565  39.2509 0082324 103.4566 257.4717  2.09160658 40254